Wetterdaten: aktuell Montag, 18.02.2019 03:20
Datum Zeit Temp. A. Auen 2 Feuchte A. Luftdruck Regen Wind Richtung Richtung Sonnenschein T Regen Solar Taupunkt Windchill Windben Empfang
18.02.2019 03:20 -1,7 C 0,0 C 90 % 1025,0 hPa 0,0 l/m 1,4 km/h (1 Bft) N-NW 337 0 min 0 min 0 W/m -3,1 C -1,7 C 3,2 km/h (1 Bft) 88 %
18.02.2019 03:19 -1,7 C 0,0 C 90 % 1024,9 hPa 0,0 l/m 1,1 km/h (1 Bft) N-NW 337 0 min 0 min 0 W/m -3,1 C -1,7 C 3,2 km/h (1 Bft) 100 %
18.02.2019 03:18 -1,7 C 0,0 C 90 % 1025,0 hPa 0,0 l/m 0,0 km/h (0 Bft) N-NW 337 0 min 0 min 0 W/m -3,1 C -1,7 C 0,0 km/h (0 Bft) 92 %
18.02.2019 03:17 -1,7 C 0,0 C 90 % 1025,0 hPa 0,0 l/m 0,9 km/h (0 Bft) N-NW 337 0 min 0 min 0 W/m -3,1 C -1,7 C 3,2 km/h (1 Bft) 78 %
18.02.2019 03:16 -1,7 C 0,0 C 90 % 1024,9 hPa 0,0 l/m 2,1 km/h (1 Bft) N-NW 337 0 min 0 min 0 W/m -3,1 C -1,7 C 6,4 km/h (2 Bft) 91 %
18.02.2019 03:15 -1,7 C 0,0 C 90 % 1025,0 hPa 0,0 l/m 3,8 km/h (1 Bft) N-NW 337 0 min 0 min 0 W/m -3,1 C -1,7 C 6,4 km/h (2 Bft) 96 %
18.02.2019 03:14 -1,7 C 0,0 C 90 % 1025,0 hPa 0,0 l/m 2,0 km/h (1 Bft) N-NO 16 0 min 0 min 0 W/m -3,1 C -1,7 C 3,2 km/h (1 Bft) 96 %
18.02.2019 03:13 -1,7 C 0,0 C 90 % 1025,0 hPa 0,0 l/m 4,0 km/h (1 Bft) N-NO 16 0 min 0 min 0 W/m -3,1 C -1,7 C 6,4 km/h (2 Bft) 96 %
18.02.2019 03:12 -1,7 C 0,0 C 90 % 1025,0 hPa 0,0 l/m 2,4 km/h (1 Bft) N 360 0 min 0 min 0 W/m -3,1 C -1,7 C 4,8 km/h (1 Bft) 91 %
18.02.2019 03:11 -1,7 C 0,0 C 89 % 1025,0 hPa 0,0 l/m 2,1 km/h (1 Bft) N 359 0 min 0 min 0 W/m -3,3 C -1,7 C 6,4 km/h (2 Bft) 87 %
18.02.2019 03:10 -1,7 C 0,0 C 89 % 1025,0 hPa 0,0 l/m 0,5 km/h (0 Bft) N 7 0 min 0 min 0 W/m -3,3 C -1,7 C 1,6 km/h (1 Bft) 92 %
18.02.2019 03:09 -1,7 C 0,0 C 89 % 1025,0 hPa 0,0 l/m 1,5 km/h (1 Bft) N 7 0 min 0 min 0 W/m -3,3 C -1,7 C 3,2 km/h (1 Bft) 91 %
18.02.2019 03:08 -1,7 C 0,0 C 89 % 1025,0 hPa 0,0 l/m 0,9 km/h (0 Bft) N 5 0 min 0 min 0 W/m -3,3 C -1,7 C 3,2 km/h (1 Bft) 71 %
18.02.2019 03:07 -1,7 C 0,0 C 89 % 1025,0 hPa 0,0 l/m 2,5 km/h (1 Bft) N 5 0 min 0 min 0 W/m -3,3 C -1,7 C 3,2 km/h (1 Bft) 83 %
18.02.2019 03:06 -1,7 C 0,0 C 89 % 1025,0 hPa 0,0 l/m 1,4 km/h (1 Bft) N 4 0 min 0 min 0 W/m -3,3 C -1,7 C 4,8 km/h (1 Bft) 92 %
18.02.2019 03:05 -1,6 C 0,0 C 89 % 1025,1 hPa 0,0 l/m 0,1 km/h (0 Bft) N 2 0 min 0 min 0 W/m -3,2 C -1,6 C 1,6 km/h (1 Bft) 78 %
18.02.2019 03:04 -1,7 C 0,0 C 89 % 1025,0 hPa 0,0 l/m 0,6 km/h (0 Bft) N 2 0 min 0 min 0 W/m -3,3 C -1,7 C 1,6 km/h (1 Bft) 87 %
18.02.2019 03:03 -1,6 C 0,0 C 89 % 1025,0 hPa 0,0 l/m 0,9 km/h (0 Bft) N 2 0 min 0 min 0 W/m -3,2 C -1,6 C 1,6 km/h (1 Bft) 83 %
18.02.2019 03:02 -1,6 C 0,0 C 89 % 1025,0 hPa 0,0 l/m 0,2 km/h (0 Bft) N 3 0 min 0 min 0 W/m -3,2 C -1,6 C 1,6 km/h (1 Bft) 87 %
18.02.2019 03:01 -1,6 C 0,0 C 89 % 1025,0 hPa 0,0 l/m 2,5 km/h (1 Bft) N 3 0 min 0 min 0 W/m -3,2 C -1,6 C 4,8 km/h (1 Bft) 92 %
18.02.2019 03:00 -1,6 C 0,0 C 89 % 1025,0 hPa 0,0 l/m 2,0 km/h (1 Bft) N 2 0 min 0 min 0 W/m -3,2 C -1,6 C 3,2 km/h (1 Bft) 83 %
18.02.2019 02:59 -1,6 C 0,0 C 89 % 1025,1 hPa 0,0 l/m 1,0 km/h (0 Bft) N-NW 333 0 min 0 min 0 W/m -3,2 C -1,6 C 3,2 km/h (1 Bft) 87 %
18.02.2019 02:58 -1,6 C 0,0 C 89 % 1025,1 hPa 0,0 l/m 0,7 km/h (0 Bft) N-NW 333 0 min 0 min 0 W/m -3,2 C -1,6 C 3,2 km/h (1 Bft) 75 %
18.02.2019 02:57 -1,6 C 0,0 C 89 % 1025,1 hPa 0,0 l/m 0,4 km/h (0 Bft) N-NW 333 0 min 0 min 0 W/m -3,2 C -1,6 C 1,6 km/h (1 Bft) 70 %
18.02.2019 02:56 -1,6 C 0,0 C 89 % 1025,1 hPa 0,0 l/m 1,1 km/h (1 Bft) N-NW 333 0 min 0 min 0 W/m -3,2 C -1,6 C 3,2 km/h (1 Bft) 88 %
18.02.2019 02:55 -1,6 C 0,0 C 89 % 1025,2 hPa 0,0 l/m 1,3 km/h (1 Bft) N-NW 333 0 min 0 min 0 W/m -3,2 C -1,6 C 3,2 km/h (1 Bft) 83 %
18.02.2019 02:54 -1,6 C 0,0 C 89 % 1025,2 hPa 0,0 l/m 0,8 km/h (0 Bft) N-NW 333 0 min 0 min 0 W/m -3,2 C -1,6 C 3,2 km/h (1 Bft) 92 %
18.02.2019 02:53 -1,6 C 0,0 C 89 % 1025,0 hPa 0,0 l/m 1,5 km/h (1 Bft) N-NW 333 0 min 0 min 0 W/m -3,2 C -1,6 C 3,2 km/h (1 Bft) 70 %
18.02.2019 02:52 -1,5 C 0,0 C 89 % 1025,1 hPa 0,0 l/m 0,0 km/h (0 Bft) N-NW 333 0 min 0 min 0 W/m -3,1 C -1,5 C 0,0 km/h (0 Bft) 96 %
18.02.2019 02:51 -1,5 C 0,0 C 89 % 1025,1 hPa 0,0 l/m 1,3 km/h (1 Bft) N-NW 333 0 min 0 min 0 W/m -3,1 C -1,5 C 3,2 km/h (1 Bft) 79 %
18.02.2019 02:50 -1,5 C 0,0 C 89 % 1025,1 hPa 0,0 l/m 2,8 km/h (1 Bft) N-NW 333 0 min 0 min 0 W/m -3,1 C -1,5 C 6,4 km/h (2 Bft) 96 %
18.02.2019 02:49 -1,5 C 0,0 C 89 % 1025,1 hPa 0,0 l/m 1,7 km/h (1 Bft) N-NW 333 0 min 0 min 0 W/m -3,1 C -1,5 C 6,4 km/h (2 Bft) 88 %
18.02.2019 02:48 -1,5 C 0,0 C 89 % 1025,1 hPa 0,0 l/m 1,1 km/h (1 Bft) N-NW 333 0 min 0 min 0 W/m -3,1 C -1,5 C 1,6 km/h (1 Bft) 78 %
18.02.2019 02:47 -1,5 C 0,0 C 89 % 1025,2 hPa 0,0 l/m 1,4 km/h (1 Bft) N-NW 333 0 min 0 min 0 W/m -3,1 C -1,5 C 3,2 km/h (1 Bft) 100 %
18.02.2019 02:46 -1,4 C 0,0 C 89 % 1025,1 hPa 0,0 l/m 1,9 km/h (1 Bft) N-NW 333 0 min 0 min 0 W/m -3,0 C -1,4 C 3,2 km/h (1 Bft) 88 %
18.02.2019 02:45 -1,4 C 0,0 C 89 % 1025,1 hPa 0,0 l/m 0,6 km/h (0 Bft) N-NW 333 0 min 0 min 0 W/m -3,0 C -1,4 C 1,6 km/h (1 Bft) 83 %
18.02.2019 02:44 -1,4 C 0,0 C 89 % 1025,2 hPa 0,0 l/m 0,1 km/h (0 Bft) N-NW 333 0 min 0 min 0 W/m -3,0 C -1,4 C 1,6 km/h (1 Bft) 88 %
18.02.2019 02:43 -1,4 C 0,0 C 89 % 1025,1 hPa 0,0 l/m 0,1 km/h (0 Bft) N-NW 333 0 min 0 min 0 W/m -3,0 C -1,4 C 1,6 km/h (1 Bft) 91 %
18.02.2019 02:42 -1,4 C 0,0 C 89 % 1025,2 hPa 0,0 l/m 1,7 km/h (1 Bft) N-NW 333 0 min 0 min 0 W/m -3,0 C -1,4 C 3,2 km/h (1 Bft) 71 %
18.02.2019 02:41 -1,4 C 0,0 C 89 % 1025,1 hPa 0,0 l/m 2,2 km/h (1 Bft) N-NW 333 0 min 0 min 0 W/m -3,0 C -1,4 C 6,4 km/h (2 Bft) 87 %
18.02.2019 02:40 -1,4 C 0,0 C 89 % 1025,2 hPa 0,0 l/m 0,5 km/h (0 Bft) N-NW 333 0 min 0 min 0 W/m -3,0 C -1,4 C 1,6 km/h (1 Bft) 83 %
18.02.2019 02:39 -1,4 C 0,0 C 89 % 1025,2 hPa 0,0 l/m 0,3 km/h (0 Bft) N-NW 333 0 min 0 min 0 W/m -3,0 C -1,4 C 1,6 km/h (1 Bft) 88 %
18.02.2019 02:38 -1,4 C 0,0 C 89 % 1025,2 hPa 0,0 l/m 0,5 km/h (0 Bft) N-NW 333 0 min 0 min 0 W/m -3,0 C -1,4 C 1,6 km/h (1 Bft) 87 %
18.02.2019 02:37 -1,4 C 0,0 C 89 % 1025,2 hPa 0,0 l/m 0,4 km/h (0 Bft) N-NW 333 0 min 0 min 0 W/m -3,0 C -1,4 C 1,6 km/h (1 Bft) 100 %
18.02.2019 02:36 -1,4 C 0,0 C 89 % 1025,2 hPa 0,0 l/m 0,5 km/h (0 Bft) N-NW 333 0 min 0 min 0 W/m -3,0 C -1,4 C 3,2 km/h (1 Bft) 78 %
18.02.2019 02:35 -1,3 C 0,0 C 89 % 1025,2 hPa 0,0 l/m 0,2 km/h (0 Bft) N-NW 333 0 min 0 min 0 W/m -2,9 C -1,3 C 1,6 km/h (1 Bft) 83 %
18.02.2019 02:34 -1,3 C 0,0 C 89 % 1025,3 hPa 0,0 l/m 0,7 km/h (0 Bft) N-NW 333 0 min 0 min 0 W/m -2,9 C -1,3 C 1,6 km/h (1 Bft) 92 %
18.02.2019 02:33 -1,3 C 0,0 C 89 % 1025,2 hPa 0,0 l/m 0,1 km/h (0 Bft) N-NW 333 0 min 0 min 0 W/m -2,9 C -1,3 C 1,6 km/h (1 Bft) 96 %
18.02.2019 02:32 -1,3 C 0,0 C 89 % 1025,3 hPa 0,0 l/m 0,2 km/h (0 Bft) N-NW 333 0 min 0 min 0 W/m -2,9 C -1,3 C 1,6 km/h (1 Bft) 88 %
18.02.2019 02:31 -1,3 C 0,0 C 89 % 1025,3 hPa 0,0 l/m 0,0 km/h (0 Bft) N-NW 333 0 min 0 min 0 W/m -2,9 C -1,3 C 0,0 km/h (0 Bft) 83 %
18.02.2019 02:30 -1,3 C 0,0 C 89 % 1025,3 hPa 0,0 l/m 0,3 km/h (0 Bft) N-NW 333 0 min 0 min 0 W/m -2,9 C -1,3 C 1,6 km/h (1 Bft) 83 %
18.02.2019 02:29 -1,3 C 0,0 C 89 % 1025,3 hPa 0,0 l/m 0,1 km/h (0 Bft) N-NW 333 0 min 0 min 0 W/m -2,9 C -1,3 C 1,6 km/h (1 Bft) 92 %
18.02.2019 02:28 -1,3 C 0,0 C 89 % 1025,3 hPa 0,0 l/m 0,0 km/h (0 Bft) N-NW 333 0 min 0 min 0 W/m -2,9 C -1,3 C 0,0 km/h (0 Bft) 96 %
18.02.2019 02:27 -1,3 C 0,0 C 89 % 1025,3 hPa 0,0 l/m 0,1 km/h (0 Bft) N-NW 333 0 min 0 min 0 W/m -2,9 C -1,3 C 1,6 km/h (1 Bft) 92 %
18.02.2019 02:26 -1,3 C 0,0 C 89 % 1025,4 hPa 0,0 l/m 0,1 km/h (0 Bft) N-NW 333 0 min 0 min 0 W/m -2,9 C -1,3 C 1,6 km/h (1 Bft) 96 %
18.02.2019 02:25 -1,3 C 0,0 C 89 % 1025,3 hPa 0,0 l/m 1,1 km/h (1 Bft) N-NW 333 0 min 0 min 0 W/m -2,9 C -1,3 C 3,2 km/h (1 Bft) 88 %
18.02.2019 02:24 -1,3 C 0,0 C 89 % 1025,3 hPa 0,0 l/m 0,8 km/h (0 Bft) N-NW 333 0 min 0 min 0 W/m -2,9 C -1,3 C 1,6 km/h (1 Bft) 83 %
18.02.2019 02:23 -1,3 C 0,0 C 89 % 1025,3 hPa 0,0 l/m 0,0 km/h (0 Bft) N-NW 333 0 min 0 min 0 W/m -2,9 C -1,3 C 0,0 km/h (0 Bft) 78 %
18.02.2019 02:22 -1,2 C 0,0 C 89 % 1025,3 hPa 0,0 l/m 0,0 km/h (0 Bft) N-NW 333 0 min 0 min 0 W/m -2,8 C -1,2 C 0,0 km/h (0 Bft) 83 %
18.02.2019 02:21 -1,2 C 0,0 C 89 % 1025,3 hPa 0,0 l/m 0,3 km/h (0 Bft) N-NW 333 0 min 0 min 0 W/m -2,8 C -1,2 C 1,6 km/h (1 Bft) 74 %
18.02.2019 02:20 -1,2 C 0,0 C 89 % 1025,4 hPa 0,0 l/m 1,8 km/h (1 Bft) N-NW 333 0 min 0 min 0 W/m -2,8 C -1,2 C 3,2 km/h (1 Bft) 83 %
_ Min-Zeit 06:50 04:00 15:15 17:25 - 04:40 - - - - - 06:45 06:50 04:45 02:19
Minimum _ -3,6 C 0,0 C 55 % 1024,9 hPa - 0,0 km/h (0 Bft) - - - - - -4,9 C -3,6 C 0,0 km/h (0 Bft) 65 %
_ Max-Zeit 15:20 04:00 10:40 07:55 04:00 00:10 - - 07:40 04:00 12:40 14:15 15:20 13:45 04:00
Maximum _ 11,8 C 0,0 C 95 % 1029,1 hPa 0,0 l/m 7,6 km/h
NW (2 Bft)
- - 5 min 0 min 506 W/m 3,6 C 11,8 C 11,3 km/h
SW (2 Bft)
100 %
Durchschnitt _ 1,8 C 0,0 C 83 % 1026,9 hPa #0,0 l/m 1,8 km/h (1 Bft) N-NW - #0 min. #0 min. 0 W/m -1,0 C 1,8 C 4,3 km/h (1 Bft) 97 %